Location: Demmingen
(48.6757°N, 10.4375°E)
Time: 03:56:45
(UTC+00:00)

Cosmos 1741 Rocket - Pass Details

Date: 23 May 2024
Orbit: 758 x 781 km, 74.0° (Epoch: 19 June)

Event Time Altitude Azimuth Distance (km) Brightness Sun altitude
Exits shadow 01:51:23 17° 221° (SW) 1,834 5.3 -12.4°
Maximum altitude 01:55:16 59° 297° (WNW) 886 4.3 -12.0°
Drops below altitude 10° 02:00:29 10° 17° (NNE) 2,324 7.7 -11.5°
Sets 02:02:56 0° 21° (NNE) 3,259 8.8 -11.2°
